TimeCET,TemperatureF,Dew PointF,Humidity,Sea Level PressureIn,VisibilityMPH,Wind Direction,Wind SpeedMPH,Gust SpeedMPH,PrecipitationIn,Events,Conditions,WindDirDegrees,DateUTC
12:55 AM,19.4,8.6,63,29.62,-9999.0,NNE,25.3,-,N/A,,Clear,30,2012-12-10 23:55:00
1:00 AM,19,9,51,,19,NNE,25.3,,,,,30,2012-12-11 00:00:00
1:55 AM,19.4,8.6,63,29.62,-9999.0,NNE,32.2,-,N/A,,Clear,30,2012-12-11 00:55:00
2:55 AM,19.4,6.8,58,29.62,-9999.0,NNE,27.6,-,N/A,,Clear,30,2012-12-11 01:55:00
3:55 AM,19.4,6.8,58,29.65,-9999.0,NNE,29.9,-,N/A,,Clear,30,2012-12-11 02:55:00
4:55 AM,19.4,8.6,63,29.65,-9999.0,NNE,29.9,-,N/A,,Clear,30,2012-12-11 03:55:00
5:55 AM,17.6,8.6,68,29.65,-9999.0,NNE,28.8,-,N/A,,Clear,30,2012-12-11 04:55:00
6:55 AM,17.6,8.6,68,29.65,-9999.0,NNE,29.9,-,N/A,,Clear,30,2012-12-11 05:55:00
7:00 AM,18,9,54,,19,NNE,29.9,,,,,30,2012-12-11 06:00:00
7:55 AM,17.6,8.6,68,29.65,-9999.0,NNE,28.8,-,N/A,,Clear,30,2012-12-11 06:55:00
8:55 AM,19.4,8.6,63,29.65,-9999.0,NNE,25.3,-,N/A,,Clear,30,2012-12-11 07:55:00
9:55 AM,21.2,10.4,63,29.68,-9999.0,NNE,23.0,-,N/A,,Clear,30,2012-12-11 08:55:00
10:55 AM,21.2,10.4,63,29.71,-9999.0,NNE,11.5,-,N/A,,Clear,30,2012-12-11 09:55:00
11:55 AM,23.0,8.6,54,29.71,-9999.0,NNE,5.8,-,N/A,,Clear,30,2012-12-11 10:55:00
12:55 PM,23.0,14.0,68,29.71,-9999.0,Calm,Calm,-,N/A,,Clear,0,2012-12-11 11:55:00
1:00 PM,23,14,55,,31,Calm,Calm,,,,,,2012-12-11 12:00:00
1:55 PM,24.8,12.2,59,29.71,-9999.0,Calm,Calm,-,N/A,,Clear,0,2012-12-11 12:55:00
2:55 PM,23.0,12.2,63,29.71,-9999.0,Calm,Calm,-,N/A,,Clear,0,2012-12-11 13:55:00
3:55 PM,23.0,14.0,68,29.71,-9999.0,Calm,Calm,-,N/A,,Clear,360,2012-12-11 14:55:00
4:55 PM,21.2,10.4,63,29.71,-9999.0,WNW,5.8,-,N/A,,Clear,290,2012-12-11 15:55:00
5:55 PM,21.2,12.2,68,29.71,-9999.0,WNW,9.2,-,N/A,,Clear,290,2012-12-11 16:55:00
6:55 PM,19.4,15.8,86,29.74,-9999.0,WNW,8.1,-,N/A,,Clear,300,2012-12-11 17:55:00
7:00 PM,20,15,73,,31,WNW,8.1,,,,,300,2012-12-11 18:00:00
7:55 PM,21.2,14.0,74,29.74,-9999.0,WNW,9.2,-,N/A,,Clear,300,2012-12-11 18:55:00
8:55 PM,21.2,12.2,68,29.77,-9999.0,WNW,6.9,-,N/A,,Clear,300,2012-12-11 19:55:00
9:55 PM,19.4,8.6,63,29.77,-9999.0,North,10.4,-,N/A,,Clear,360,2012-12-11 20:55:00
10:55 PM,17.6,6.8,63,29.80,-9999.0,North,9.2,-,N/A,,Clear,360,2012-12-11 21:55:00
11:55 PM,17.6,6.8,63,29.80,-9999.0,North,8.1,-,N/A,,Clear,360,2012-12-11 22:55:00